Lapse_Rate
6.2 6.2 6.3 5.9 6.0 5.8 5.8 6.6 7.6 7.8 7.6 7.1 7.1 7.0 6.9 6.8 6.9 7.0 7.0 6.9 6.9 6.7 6.8 6.7 6.6 6.9 6.8 6.4 6.4 6.3 6.4 6.5 6.7 6.7 6.6 6.8 7.0 7.0 7.0 6.9 6.8 6.8 6.7 6.5 6.4 6.2 6.1 6.1 6.1
6.1 6.1 5.9 5.7 5.4 5.5 5.9 6.9 7.5 7.7 7.7 7.4 7.1 7.0 7.1 7.1 7.1 6.7 6.7 6.7 6.9 6.8 6.9 6.7 6.7 6.9 6.8 6.3 6.4 6.4 6.4 6.4 6.5 6.6 6.6 6.8 7.0 7.0 7.0 6.9 6.8 6.7 6.6 6.5 6.4 6.3 6.3 6.3 6.2
5.9 6.1 5.8 5.1 5.1 5.4 6.1 7.1 7.6 7.5 7.7 7.6 7.4 7.3 7.3 7.4 7.3 7.0 6.9 6.7 6.8 6.7 7.0 6.7 6.7 6.8 6.6 6.4 6.4 6.4 6.4 6.4 6.4 6.5 6.7 6.8 6.8 6.9 6.9 6.9 6.7 6.6 6.4 6.3 6.4 6.3 6.3 6.3 6.3
5.7 5.7 5.5 5.1 4.9 5.9 6.2 7.2 7.5 7.4 7.6 7.7 7.5 7.3 7.5 7.6 7.0 6.9 7.2 6.9 6.7 6.8 6.9 6.7 6.7 6.7 6.5 6.3 6.4 6.4 6.4 6.4 6.5 6.6 6.7 6.8 6.9 7.1 7.0 6.9 6.7 6.7 6.6 6.6 6.5 6.5 6.6 6.6 6.7
5.4 5.5 5.3 4.8 5.1 5.6 6.6 7.1 7.4 7.6 7.6 7.8 7.4 7.6 7.9 7.4 7.0 6.9 6.8 6.8 6.9 6.6 6.7 6.8 6.8 6.7 6.5 6.4 6.3 6.2 6.1 6.2 6.3 6.5 6.7 6.8 7.0 7.0 7.0 6.9 6.8 6.7 6.7 6.7 6.8 6.9 6.8 6.7 6.5
5.3 5.2 5.0 4.7 5.4 5.8 6.4 7.0 7.3 7.5 7.7 7.9 7.7 7.3 7.6 7.7 7.1 7.0 6.8 6.7 6.6 6.5 6.3 6.7 7.0 6.7 6.6 6.4 6.2 6.1 6.1 6.2 6.3 6.5 6.7 6.8 7.0 7.0 6.9 6.9 6.9 7.0 7.0 7.0 6.9 6.9 6.8 6.8 6.7
5.3 5.2 4.8 5.3 5.4 5.9 6.3 6.8 7.2 7.7 7.7 7.8 7.8 7.6 7.6 7.6 7.5 7.3 6.9 6.5 7.0 6.7 6.1 6.4 6.9 6.7 6.5 6.4 6.3 6.1 6.1 6.2 6.4 6.6 6.8 6.9 7.0 7.0 6.9 7.0 7.0 6.9 6.9 7.0 7.0 7.0 6.9 7.0 6.9
5.3 5.0 4.7 4.9 5.3 5.5 6.5 6.6 7.1 7.3 7.9 7.8 7.6 7.8 7.9 7.7 7.4 7.4 7.3 7.0 6.9 6.5 6.1 6.2 6.6 6.8 6.6 6.5 6.4 6.3 6.3 6.3 6.5 6.7 6.8 6.9 7.0 7.1 7.0 7.1 7.0 7.0 7.1 7.3 7.3 7.1 7.1 7.0 6.9
5.3 4.7 4.6 4.7 5.3 5.4 5.9 6.6 6.9 7.0 7.6 7.6 7.9 8.0 7.9 7.5 7.1 7.3 7.4 7.4 7.7 6.9 6.3 5.9 6.9 6.8 6.6 6.7 6.6 6.5 6.5 6.5 6.5 6.7 6.8 6.9 7.0 7.1 7.1 7.0 7.0 7.2 7.3 7.3 7.3 7.3 7.3 7.1 7.1
5.1 4.3 4.3 5.1 5.6 5.7 5.5 6.5 6.8 6.9 7.5 8.1 8.1 8.3 8.0 7.4 7.2 6.9 6.9 7.3 7.7 7.5 7.1 6.9 6.8 6.9 6.9 6.7 6.6 6.6 6.5 6.4 6.5 6.6 6.6 6.7 6.9 7.0 7.0 7.1 7.2 7.3 7.4 7.5 7.5 7.5 7.3 7.2 7.1
4.7 4.5 4.6 5.4 5.5 5.6 5.6 6.2 6.5 6.8 7.2 8.1 8.5 8.2 8.3 8.1 7.6 7.2 6.9 7.0 7.0 7.6 7.2 7.2 7.0 7.0 6.9 6.9 6.7 6.5 6.5 6.5 6.4 6.5 6.7 6.9 6.9 7.0 7.0 7.1 7.2 7.3 7.3 7.4 7.4 7.2 7.3 7.1 7.1
4.5 4.6 4.5 5.1 5.4 5.4 5.6 6.1 6.5 6.8 7.2 7.8 8.4 8.4 8.2 8.0 7.8 7.7 7.5 7.3 7.5 7.6 7.1 7.0 7.2 7.1 7.1 7.0 6.9 6.6 6.6 6.5 6.6 6.6 6.7 6.8 6.9 6.9 7.1 7.3 7.4 7.3 7.2 7.4 7.3 7.3 7.3 7.1 7.1
4.6 4.4 4.5 5.3 5.5 5.5 5.6 6.0 6.6 6.8 6.9 7.6 8.0 8.2 8.2 7.8 7.7 7.8 7.6 7.0 7.1 7.8 7.1 7.1 7.2 7.1 7.1 7.0 6.8 6.6 6.5 6.4 6.5 6.5 6.5 6.6 6.8 7.0 7.1 7.2 7.1 7.3 7.3 7.3 7.4 7.4 7.3 7.2 7.2
4.4 4.4 4.4 5.0 5.4 5.5 5.4 5.9 6.2 7.0 7.1 7.2 7.3 7.9 8.1 7.7 7.7 7.6 7.1 7.1 7.2 7.5 7.2 7.4 7.4 7.3 7.2 7.0 6.8 6.6 6.5 6.6 6.6 6.7 6.8 6.8 6.9 7.0 7.2 7.1 7.1 7.1 7.3 7.2 7.3 7.3 7.4 7.3 7.2
4.4 4.2 4.4 4.7 5.3 5.3 5.3 5.8 6.0 6.9 7.3 7.2 7.0 7.2 7.9 8.1 8.1 7.7 7.2 7.6 7.5 7.4 7.9 7.3 7.5 7.5 7.3 7.1 6.9 7.0 6.8 6.7 6.6 6.7 6.7 6.8 6.9 7.2 7.2 7.3 7.1 6.9 7.0 7.1 7.2 7.3 7.2 7.1 6.9
4.2 4.0 4.4 4.6 5.2 5.3 5.2 5.9 5.8 7.1 7.0 7.3 7.2 7.1 7.6 7.9 7.9 7.7 7.3 7.5 7.6 7.9 7.7 7.8 7.7 7.6 7.6 7.5 7.5 7.3 7.1 7.0 7.0 6.9 6.8 6.7 6.9 6.9 7.0 6.9 6.7 6.8 6.9 7.3 7.1 7.1 7.0 6.8 6.6
4.6 4.9 4.5 4.7 5.1 5.5 5.2 5.0 6.0 7.1 6.8 7.5 7.4 7.2 7.3 7.7 7.8 7.6 7.2 7.2 7.3 7.3 7.5 7.4 7.5 7.4 7.5 7.7 7.4 7.2 7.1 7.0 6.7 6.7 6.8 6.7 6.9 6.9 6.6 6.2 6.4 6.6 7.2 7.2 6.4 6.7 7.0 6.8 7.1
5.4 4.9 4.8 4.9 5.1 5.3 5.3 4.8 6.3 7.0 7.0 7.6 7.6 7.3 6.9 7.7 7.7 7.7 7.3 7.3 7.1 7.1 7.3 7.2 6.9 7.0 7.1 7.1 7.1 7.0 6.9 6.7 6.4 6.8 6.6 6.7 6.7 6.6 6.5 6.4 6.3 6.4 6.3 6.0 6.5 7.0 7.0 7.3 7.6
5.5 5.1 4.8 5.1 5.2 5.2 4.9 4.8 6.1 6.6 7.1 7.6 7.8 7.3 7.1 7.6 7.7 7.2 7.4 7.2 7.2 7.5 7.3 6.8 6.8 6.6 6.7 6.7 6.8 6.9 6.5 6.2 6.4 6.5 6.5 6.9 6.8 7.0 6.7 6.4 5.8 5.7 5.2 5.4 6.2 6.8 7.1 7.0 6.6
5.1 5.3 5.5 5.6 5.6 4.6 4.8 4.8 5.6 6.7 6.9 7.5 7.8 7.5 7.5 7.8 7.8 7.6 7.5 7.4 7.0 6.9 7.0 6.9 6.9 6.6 6.2 6.4 6.2 6.1 6.0 6.0 6.4 6.4 6.4 6.5 6.2 6.1 6.5 6.5 5.6 5.5 5.9 6.4 6.6 6.5 6.3 6.3 6.2
5.1 5.2 5.5 5.8 5.8 4.8 4.7 5.0 5.3 6.6 7.1 7.3 7.3 7.6 7.7 8.1 7.8 7.6 7.5 7.4 7.2 7.0 7.4 7.5 6.9 6.6 6.4 6.1 5.9 5.7 5.6 5.8 6.0 5.9 5.5 5.6 5.9 6.5 6.1 6.0 5.7 5.9 6.5 6.2 5.9 5.9 5.8 5.9 5.7
5.4 5.4 5.5 6.0 5.6 6.2 5.1 6.3 5.6 6.0 7.2 7.3 6.9 7.5 7.9 8.1 7.9 7.9 7.5 7.6 7.6 7.5 7.4 7.6 7.3 6.9 6.4 5.9 5.7 5.8 5.3 5.4 5.5 5.6 5.7 6.6 7.0 7.0 5.0 6.6 5.9 5.6 5.8 6.0 6.0 5.9 5.7 5.5 5.8
5.7 5.8 5.5 5.6 5.8 5.7 5.4 5.2 6.3 6.5 7.1 7.2 7.2 7.4 8.0 8.4 8.2 7.8 7.6 7.5 7.6 7.4 7.6 7.2 7.5 6.8 6.3 5.9 5.6 5.7 5.8 5.4 5.4 5.4 6.5 6.0 6.4 6.0 5.7 5.9 5.6 5.6 5.8 5.8 5.6 5.5 5.8 6.1 6.3
6.3 5.9 5.8 5.9 6.2 6.5 6.0 5.5 6.7 6.5 7.1 7.0 7.4 7.7 8.0 8.3 8.3 7.6 7.4 7.2 7.1 7.2 7.3 7.2 7.3 6.5 6.0 5.7 5.9 5.9 5.9 5.9 5.9 6.1 6.2 6.1 5.8 5.5 5.5 5.4 5.5 5.7 5.6 5.7 5.8 6.0 6.1 6.3 6.4
6.2 6.8 7.4 7.2 7.0 7.2 6.8 5.8 6.5 7.1 7.2 7.1 7.5 7.5 7.9 8.4 7.6 7.3 7.2 7.1 7.0 7.3 7.3 7.3 6.8 6.1 6.0 6.1 6.1 5.9 6.0 5.9 5.9 5.8 5.8 5.6 5.5 5.6 5.5 5.6 5.5 5.7 5.7 5.9 6.0 6.2 6.4 6.4 6.3
6.6 6.8 7.9 7.3 7.2 7.5 7.1 6.3 6.7 6.8 7.2 7.5 8.0 7.7 7.9 7.5 7.4 7.1 7.0 6.7 7.0 7.1 7.2 7.0 6.3 5.9 6.0 6.1 6.1 6.0 6.0 5.7 5.9 6.1 5.8 5.7 5.7 5.6 5.6 5.4 5.4 5.5 5.8 6.0 6.2 6.4 6.4 6.3 6.2
6.6 6.4 7.0 7.0 6.8 8.1 7.8 6.3 6.9 6.7 7.1 7.6 8.0 7.6 7.6 7.5 7.3 7.4 6.8 6.7 7.0 7.1 7.2 6.8 6.3 6.0 5.9 6.0 6.1 6.1 5.7 6.0 5.9 5.8 5.8 5.7 5.6 5.6 5.4 5.6 5.8 6.0 6.3 6.3 6.5 6.5 6.4 6.3 6.4
6.9 7.5 7.2 6.7 7.7 8.3 8.3 7.4 7.6 6.8 7.3 7.8 8.3 7.7 7.7 7.3 6.8 6.6 6.9 6.9 7.0 7.1 7.0 6.6 6.2 6.0 6.1 6.4 6.5 6.1 6.0 6.1 5.9 5.9 5.7 5.6 5.8 5.8 5.8 6.0 6.2 6.4 6.3 6.3 6.3 6.4 6.3 6.3 6.4
7.0 7.0 7.2 7.4 6.7 8.6 8.4 7.8 7.3 7.4 7.6 7.8 7.9 7.9 7.6 7.4 7.0 6.7 6.7 6.9 7.0 7.1 6.8 6.5 6.4 6.3 6.5 6.5 6.3 6.1 6.0 6.0 5.8 5.8 5.7 5.7 6.0 5.9 6.1 6.3 6.5 6.4 6.4 6.3 6.2 6.1 6.3 6.3 6.3
7.3 7.4 7.1 7.5 7.9 7.0 7.3 8.1 7.6 7.6 8.2 8.3 8.1 7.7 7.7 7.5 7.1 7.0 7.1 7.0 7.0 7.0 6.9 6.6 6.6 6.6 6.5 6.5 6.4 6.1 6.1 6.0 6.0 5.9 5.9 6.1 6.1 6.0 6.3 6.4 6.3 6.3 6.3 6.2 6.2 6.2 6.4 6.3 6.5
Wind_Speed
7 7 2 2 4 3 6 5 3 5 3 2 1 2 2 1 3 0 2 9 19 21 24 25 21 20 20 21 21 21 21 21 21 19 18 17 16 16 15 14 13 13 12 12 11 10 10 10 9
3 1 1 2 6 9 9 6 11 8 1 4 2 2 4 1 3 8 9 11 21 21 23 25 23 21 20 21 21 20 19 19 18 17 16 15 15 14 14 13 12 12 11 11 10 9 9 8 7
0 1 4 4 7 17 11 11 14 6 3 3 2 2 1 2 5 10 8 18 20 19 23 24 24 22 20 22 21 20 18 17 16 16 15 14 13 12 11 11 11 10 9 9 8 7 6 5 4
3 3 2 7 17 16 14 7 11 8 5 5 3 4 1 3 3 6 18 21 20 17 22 26 23 22 21 21 21 20 19 17 16 15 15 13 13 12 10 11 10 9 8 7 6 5 4 3 1
2 1 7 8 17 5 11 6 7 9 4 4 5 3 2 2 1 12 21 20 20 18 19 25 24 22 22 22 22 21 18 17 17 15 14 13 12 11 10 9 8 7 6 4 4 3 0 2 3
4 1 6 16 12 10 6 12 5 8 5 4 4 5 1 8 9 15 18 20 19 17 17 21 22 20 20 21 21 20 19 17 16 14 14 13 12 11 10 8 7 5 3 1 1 2 4 5 6
7 5 13 5 19 9 14 8 11 9 9 9 1 4 3 7 11 15 17 17 18 16 15 16 20 19 18 18 19 19 18 17 15 14 13 12 11 9 7 6 5 2 2 3 4 5 7 8 9
3 4 8 8 10 11 10 8 10 15 17 3 4 5 3 10 15 16 17 17 18 18 14 13 16 17 17 16 15 18 18 16 16 14 12 11 9 7 5 4 3 3 5 6 6 8 9 10 11
3 7 13 14 14 9 7 12 7 5 17 10 6 7 5 19 18 16 17 16 14 15 14 13 12 13 14 14 14 14 15 14 13 12 10 10 6 5 5 2 2 4 6 7 8 10 11 11 13
7 9 13 7 8 7 7 9 5 5 10 16 12 3 15 20 18 19 18 19 17 17 16 13 12 11 12 12 13 11 12 11 10 9 8 5 5 3 2 2 3 6 8 9 9 10 10 11 9
4 9 9 9 7 4 5 5 3 5 11 12 7 10 14 16 17 18 19 19 21 17 14 15 13 12 10 8 10 9 8 8 7 7 7 5 5 4 3 3 4 5 5 7 7 7 7 7 9
6 6 5 6 3 3 4 5 5 9 9 5 3 4 16 18 18 19 19 18 18 18 17 17 16 13 11 11 8 9 7 9 7 8 8 6 6 5 5 5 4 5 5 6 7 8 9 10 10
10 5 6 11 6 6 7 13 8 15 16 14 11 3 12 13 14 15 17 17 18 17 17 17 16 14 12 10 8 8 6 7 6 7 7 6 5 4 5 4 5 6 6 7 7 8 8 8 10
1 4 9 6 10 6 6 12 6 15 5 8 7 5 11 14 15 16 17 17 17 17 16 16 16 13 11 10 11 7 9 8 8 6 6 9 6 5 4 4 5 7 7 9 9 7 7 7 8
4 5 5 13 9 7 6 19 24 21 19 20 15 8 6 13 16 18 17 17 17 15 14 14 13 12 11 11 9 6 8 7 5 5 7 6 6 6 6 5 5 8 9 11 9 8 7 7 7
5 6 10 8 14 11 9 28 16 18 19 22 17 11 4 12 16 15 16 16 14 14 15 13 11 12 11 9 7 4 4 4 6 6 4 6 7 8 7 5 5 7 8 7 6 6 7 7 7
2 4 12 9 14 10 23 10 14 16 10 19 16 11 6 12 13 15 17 16 15 16 15 15 14 14 13 8 4 4 4 4 3 3 3 5 4 5 7 5 5 7 5 5 6 6 5 6 7
5 7 6 8 11 18 16 22 17 3 13 14 10 11 10 16 16 14 15 15 16 15 15 14 11 11 10 6 4 3 3 2 5 9 10 10 9 5 3 7 9 8 5 6 5 8 7 4 5
4 4 6 8 6 5 16 16 21 23 15 14 9 11 12 16 14 14 14 15 15 13 13 13 13 12 9 6 6 4 4 7 8 10 19 20 18 17 12 9 9 10 8 6 5 5 6 4 7
6 8 9 11 13 6 12 14 14 19 19 17 15 11 15 17 15 15 15 15 15 14 13 12 12 11 9 7 5 4 6 8 7 8 12 12 15 11 11 5 3 6 5 5 4 4 4 3 5
8 9 7 8 8 10 10 15 16 13 19 18 9 13 18 21 20 17 17 15 14 14 14 12 11 10 9 9 8 8 9 6 3 4 5 5 5 5 9 6 2 4 4 3 4 6 7 4 3
11 8 10 9 5 6 4 5 16 17 16 19 14 15 17 18 19 18 16 15 13 10 10 12 13 10 10 10 10 10 6 5 3 3 4 7 16 13 8 12 3 3 2 6 6 6 5 4 6
6 6 7 8 7 7 8 5 13 16 16 17 19 19 20 20 20 20 19 16 14 13 13 12 13 11 11 11 12 9 8 6 7 5 9 7 14 13 14 12 4 4 4 5 5 5 7 7 5
6 8 6 5 5 8 14 11 13 14 23 21 20 20 22 22 20 17 16 15 15 13 13 12 12 10 9 8 10 8 11 8 6 7 8 9 7 6 10 7 6 7 5 6 6 7 9 7 7
13 9 5 5 6 8 15 10 16 18 21 23 24 23 23 23 19 19 18 17 16 16 15 13 12 10 8 8 9 12 10 11 12 10 7 7 6 5 5 6 6 5 8 8 6 8 9 8 7
18 9 3 7 7 12 10 11 12 18 15 20 21 22 24 22 18 16 19 18 17 18 17 14 13 12 11 12 13 12 12 8 9 9 8 7 6 6 6 8 8 8 8 9 9 7 6 7 6
13 11 1 3 4 5 10 15 9 8 15 17 20 21 23 23 19 17 16 17 18 17 16 15 15 13 13 15 13 13 12 12 10 11 9 7 7 7 8 9 7 9 9 8 7 6 7 7 6
9 9 6 3 7 8 14 20 11 13 19 18 22 23 21 20 21 18 16 18 16 17 15 15 16 16 16 16 14 12 12 11 11 9 10 10 8 8 7 7 7 7 6 7 6 6 7 4 4
8 11 7 4 5 9 9 16 18 13 20 23 25 24 24 23 23 20 17 16 18 17 16 15 17 18 17 15 14 13 11 11 11 10 10 9 8 7 8 7 8 7 8 7 5 5 4 3 6
18 15 16 8 13 5 5 11 4 16 22 23 23 22 23 24 23 19 19 19 17 16 14 16 16 16 15 15 15 14 13 12 11 11 10 9 9 8 8 7 7 7 6 5 5 5 4 6 7
Wind_Direction
309 310 275 233 224 239 221 216 281 227 214 292 180 224 179 209 224 309 30 162 143 146 149 148 149 143 143 138 131 132 133 136 139 142 139 139 138 139 138 134 133 131 130 128 123 120 118 120 121
327 183 151 156 227 212 218 219 224 217 156 305 216 218 229 215 129 121 131 160 153 148 150 149 147 147 147 136 133 132 133 133 135 133 130 134 136 139 139 134 132 133 133 129 128 129 130 130 129
264 334 186 205 219 222 225 205 223 233 273 232 253 241 269 160 87 144 130 154 153 152 151 148 144 148 145 138 135 132 131 131 131 128 128 131 131 131 129 126 128 131 131 127 126 129 135 136 133
165 158 133 226 215 226 224 197 221 232 233 210 215 251 193 40 166 155 147 150 153 154 153 142 142 146 143 141 136 134 133 130 129 130 131 134 130 125 124 126 132 139 137 134 138 145 152 154 143
89 170 210 223 229 245 227 241 216 202 185 188 201 239 215 87 107 136 147 153 155 155 155 145 142 144 144 144 141 138 136 134 132 132 132 131 129 130 129 134 139 144 143 149 159 167 203 307 307
161 213 209 217 217 223 241 212 210 216 201 171 224 254 201 125 134 147 152 155 156 154 155 148 138 143 146 148 144 140 138 135 132 131 131 132 134 137 143 143 146 153 155 187 296 318 300 301 301
214 191 219 227 221 218 222 214 224 223 237 233 213 265 111 158 149 152 151 151 153 152 153 148 145 147 146 149 146 141 139 137 135 135 135 138 139 144 145 143 147 154 212 251 265 281 292 297 301
177 215 198 217 206 229 217 224 235 230 250 183 196 242 197 163 147 148 152 153 151 151 151 149 148 154 157 156 148 146 143 143 142 142 144 141 141 146 150 151 162 216 252 268 282 291 293 298 301
171 217 218 213 206 217 195 204 197 258 244 256 227 244 113 144 144 146 151 151 158 152 150 151 151 159 157 155 152 146 149 148 146 147 146 149 155 158 165 159 219 252 269 277 289 292 294 299 288
209 219 207 212 214 219 189 215 203 228 212 231 244 94 136 146 153 157 164 158 165 161 152 151 157 159 157 154 152 158 160 170 175 168 163 167 156 168 203 238 271 273 271 275 277 284 296 288 304
188 225 204 207 214 231 223 231 287 222 218 223 232 192 154 158 164 168 172 176 163 165 151 153 160 160 158 153 154 162 164 167 172 170 173 173 180 192 215 244 255 269 280 287 290 298 295 301 298
222 236 237 195 205 277 260 309 271 244 235 110 34 251 172 175 180 176 171 169 160 165 157 162 162 162 164 163 168 167 171 174 175 181 182 195 208 209 227 237 260 277 286 296 301 303 300 298 294
221 210 234 247 278 286 302 273 267 265 258 279 289 280 194 194 183 179 171 168 161 159 164 173 169 172 170 167 168 169 181 181 175 183 193 216 236 243 254 272 284 292 301 301 294 287 297 299 301
184 229 242 270 257 257 266 267 279 263 285 299 303 279 225 195 181 170 169 169 171 165 167 170 177 175 173 175 174 171 183 181 191 196 200 215 239 257 277 287 283 282 281 292 294 289 303 306 310
216 236 231 234 241 251 247 260 239 254 278 287 286 304 233 194 180 180 170 172 173 167 164 171 173 179 181 187 178 177 188 194 203 207 219 224 227 240 256 269 271 276 289 298 301 301 301 300 300
219 219 230 200 216 225 218 249 238 250 249 260 268 266 254 192 188 177 171 177 171 159 171 169 177 181 182 187 185 182 184 195 209 216 229 229 236 241 245 257 281 311 310 312 308 304 294 291 302
200 203 220 237 208 211 213 254 240 243 236 247 254 253 225 203 185 174 171 163 166 170 166 170 179 178 177 179 179 182 172 206 234 254 287 304 265 283 300 322 325 324 317 300 287 283 303 330 330
178 198 215 211 202 225 230 232 252 277 233 242 249 239 217 212 190 176 169 161 166 173 178 174 168 165 168 156 150 131 123 71 32 28 24 15 1 11 355 340 327 332 310 321 328 331 319 321 336
265 250 254 258 255 270 246 239 232 253 263 270 271 236 211 198 180 169 165 163 161 166 161 164 155 157 150 127 122 117 112 91 75 64 62 53 49 52 30 58 6 11 338 315 328 308 320 334 354
257 271 267 276 274 253 254 256 242 244 246 251 256 235 192 168 174 167 173 169 172 165 162 157 151 150 134 117 105 102 93 84 88 73 56 54 66 56 95 67 2 310 268 291 319 344 315 339 5
231 246 253 261 307 276 264 261 244 237 234 237 253 222 186 175 172 173 177 170 171 166 163 152 139 140 127 113 115 108 102 104 125 107 93 59 68 99 76 110 3 301 315 289 11 359 2 343 359
235 230 247 257 261 233 15 252 216 221 219 218 225 197 188 179 176 170 177 163 169 133 140 139 124 127 129 130 106 103 128 135 165 178 164 116 75 56 75 72 35 334 3 34 30 22 15 0 28
226 197 236 248 244 268 222 233 237 203 214 205 209 197 186 179 174 173 176 163 149 150 142 121 121 125 134 142 136 131 149 147 154 145 96 85 64 48 45 59 67 60 60 60 55 45 40 44 38
226 218 222 254 225 237 225 227 224 190 203 194 201 200 183 177 179 169 159 149 147 134 126 127 126 120 144 138 145 143 144 148 111 93 80 62 62 67 66 73 70 69 62 51 45 48 48 53 55
221 186 162 187 200 232 198 215 252 208 202 191 193 194 184 175 163 158 154 156 144 140 135 128 127 120 104 104 117 129 123 114 106 97 96 111 101 84 73 82 62 56 52 57 64 60 56 49 54
198 200 231 190 197 214 207 219 232 225 220 183 189 185 179 165 162 156 159 144 138 135 133 124 122 109 119 117 110 110 117 107 105 114 117 105 116 119 99 76 72 70 66 62 60 64 60 57 58
179 212 209 291 255 230 202 221 261 227 186 176 177 170 172 159 152 143 136 141 127 123 129 131 119 118 119 109 108 106 106 108 113 111 113 116 107 93 78 72 66 62 61 67 77 73 64 56 49
219 171 194 206 214 200 216 213 221 180 176 169 173 174 160 154 136 144 136 133 120 115 120 123 124 120 113 110 112 111 113 116 119 118 104 97 100 99 96 88 83 74 70 65 67 73 62 63 50
185 203 207 253 259 223 210 218 215 204 176 171 174 171 156 154 148 141 131 127 122 117 122 126 125 124 118 115 115 113 112 109 107 110 115 120 113 111 99 92 79 68 55 50 66 81 75 54 57
208 212 205 210 210 241 293 218 198 206 185 170 170 158 153 149 141 133 132 127 120 116 122 125 126 122 120 121 118 118 118 118 121 122 120 121 112 103 96 85 71 60 60 60 67 68 55 47 47